Regional Weather Roundup
Issued by NWS State College, PA

Home | Current Version | Previous Version | Text Only | Print | Product List | Glossary On
Versions: 1 2 3 4 5 6 7 8 9 10 11 12 13 14 15 16 17 18 19 20 21 22 23 24 25 26 27 28 29 30 31 32 33 34 35 36 37 38 39 40 41 42 43 44 45 46 47 48 49 50
000
ASUS41 KCTP 280203
RWRCTP

REGIONAL WEATHER ROUNDUP
NATIONAL WEATHER SERVICE STATE COLLEGE PA
1000 PM EDT SUN JUL 27 2014

Note: "fair" indicates few or no clouds below 12,000 feet with no
significant weather and/or obstructions to visibility.

* = STATION THAT DOES NOT REPORT PRECIPITATION /E.G. RAIN...SNOW...ETC/
    THUNDER OR FOG.

PAZ002>004-007>009-013>016-020>023-029>032-280300-
WESTERN PENNSYLVANIA

CITY           SKY/WX    TMP DP  RH WIND       PRES   REMARKS
ERIE           RAIN      66  61  84 SW7       29.65R
MEADVILLE      LGT RAIN  62  58  86 E5        29.64S FOG
FRANKLIN*      MOCLDY    61  55  82 SE7       29.66S
NEW CASTLE     LGT RAIN  63  60  90 CALM      29.66R
BEAVER COUNTY  NOT AVBL
BUTLER*        CLOUDY    66  61  82 E7        29.68S
PITTSBURGH INT LGT RAIN  70  68  93 CALM      29.66F FOG
PITTSBURGH     MOCLDY    69  66  90 S6        29.66F FOG
INDIANA*       CLOUDY    68  66  94 VRB3      29.73R
LATROBE        MOCLDY    68  68 100 CALM      29.68F
WASHINGTON CO* PTCLDY    68  66  94 CALM      29.68S
$$

PAZ004>006-010>012-017>019-024>028-033>037-041-042-045-046-049>053-280300-
CENTRAL PENNSYLVANIA

CITY           SKY/WX    TMP DP  RH WIND       PRES   REMARKS
BRADFORD       CLOUDY    63  61  93 S3        29.67F
DUBOIS         CLOUDY    64  61  90 SE9       29.68F
CLEARFIELD     TSTM      63  63 100 S6        29.71S VSB 1
JOHNSTOWN      MOCLDY    67  65  93 S6        29.72F
ALTOONA        LGT RAIN  66  65  96 CALM      29.71F
STATE COLLEGE  LGT RAIN  64  64  98 N7        29.71S
WILLIAMSPORT   RAIN      71  65  81 VRB3      29.67R
SELINSGROVE    LGT RAIN  68  66  93 S5        29.72F
FT INDIANTOWN  LGT RAIN  67  67 100 VRB5      29.74R
CAPITAL CITY   LGT RAIN  65  64  97 SE5       29.71F
HARRISBURG     TSTM      67  64  90 E6        29.70F FOG
YORK           CLOUDY    66  64  93 E6        29.71S
$$

PAZ038>040-043-044-047-048-054-055-060>062-067>071-280300-
EASTERN PENNSYLVANIA

CITY           SKY/WX    TMP DP  RH WIND       PRES   REMARKS
SCRANTON       CLOUDY    79  63  57 S3        29.70R
MOUNT POCONO   CLOUDY    73  62  68 SW3       29.75S
ALLENTOWN      TSTM      76  72  87 CALM      29.70R FOG
QUAKERTOWN*    CLOUDY    77  73  88 CALM      29.70S
READING        RAIN      69  66  90 W6        29.72R FOG
LANCASTER      TSTM      67  65  93 W8        29.74R FOG
COATESVILLE    RAIN      70  70 100 W7        29.72R
POTTSTOWN      TSTM      76  73  91 W7        29.72R
BLUE BELL      CLOUDY    79  73  83 CALM      29.69R
DOYLESTOWN     LGT RAIN  76  73  91 S5        29.69R
WILLOW GROVE   NOT AVBL
NORTH PHILA    CLOUDY    81  69  67 S9G17     29.70R
PHILADELPHIA   CLOUDY    80  71  74 S8        29.69R
$$


USA.gov is the U.S. government's official web portal to all federal, state and local government web resources and services.